Regional Weather Roundup
Issued by NWS Bismarck, ND

Home | Current Version | Previous Version | Text Only | Print | Product List | Glossary On
Versions: 1 2 3 4 5 6 7 8 9 10 11 12 13 14 15 16 17 18 19 20 21 22 23 24 25 26 27 28 29 30 31 32 33 34 35 36 37 38 39 40 41 42 43 44 45 46 47 48 49 50
000
ASUS43 KBIS 011810
RWRBIS

NWR BROADCAST TEXT
NATIONAL WEATHER SERVICE BISMARCK ND
100 PM CDT SUN MAY 01 2016

NOTE: "FAIR" INDICATES FEW OR NO CLOUDS BELOW 12,000 FEET WITH NO
SIGNIFICANT WEATHER AND/OR OBSTRUCTIONS TO VISIBILITY.


CITY           SKY/WX    TMP DP  RH WIND       PRES   REMARKS
WILLISTON      SUNNY     62  27  26 VRB3      30.29F
MINOT          SUNNY     64  26  23 W8        30.28F
MINOT AFB      SUNNY     58  27  29 VRB5      30.27F
BISMARCK       SUNNY     59  27  29 N8        30.28F
DICKINSON      SUNNY     58  28  32 VRB6      30.27F
GARRISON         N/A     58  26  29 VRB3      30.28F
HETTINGER ARPT SUNNY     58  28  32 NE8       30.30F
JAMESTOWN      SUNNY     59  29  31 N9        30.25F
BEACH          FAIR      57  27  30 W3        30.33F
CARRINGTON     FAIR      59  25  27 VRB5G15   30.29F
HAZEN          FAIR      59  28  31 N8        30.30F
LINTON         FAIR      57  32  38 N5        30.30S
MANDAN         FAIR      57  27  30 NE7       30.29F
OAKES            N/A    N/A N/A N/A MISG        N/A
RUGBY          FAIR      59  27  29 S5        30.27F
STANLEY        FAIR      59  27  29 VRB7      30.30F
TIOGA          FAIR      57  25  28 W3        30.33F
WATFORD CITY   FAIR      59  28  31 NE3       30.29F
$$

CITY           SKY/WX    TMP DP  RH WIND       PRES   REMARKS
GRAND FORKS    SUNNY     62  30  29 E7        30.25F
GRAND FORKS AF SUNNY     59  27  29 NE9       30.25F
DEVILS LAKE    SUNNY     58  29  33 SW13      30.27F
FARGO          SUNNY     61  29  29 NW10      30.23F
CANDO          FAIR      61  25  25 NE6       30.28F
CAVALIER       FAIR      59  28  31 N5        30.26F
GRAFTON        FAIR      61  27  27 N6        30.27F
GWINNER        FAIR      57  32  38 NE8       30.25F
LANGDON        FAIR      63  25  23 VRB6G14   30.26F
ROLLA          FAIR      59  23  25 E3        30.28F
WALHALLA       FAIR      61  28  29 NE3       30.26F
$$

CITY           SKY/WX    TMP DP  RH WIND       PRES   REMARKS
ABERDEEN       SUNNY     58  32  37 N14G20    30.26F
MOBRIDGE       SUNNY     58  34  40 N10G16    30.26F
BUFFALO          N/A     58  28  32 NE9       30.24F
RAPID CITY     MOSUNNY   54  31  41 N14G22    30.31F
GLASGOW        SUNNY     61  31  32 VRB7      30.30F
SIDNEY         SUNNY     63  30  29 NE6       30.30F
WOLF POINT     SUNNY     64  29  26 MISG      30.30F
GLENDIVE       SUNNY     59  28  31 NW3       30.32F
MILES CITY     SUNNY     58  29  33 VRB5      30.32F
BAKER          SUNNY     57  27  31 VRB3      30.32F
$$

CITY           SKY/WX    TMP DP  RH WIND       PRES   REMARKS
BILLINGS       MOSUNNY   56  29  35 VRB6      30.32F
GREAT FALLS    SUNNY     54  30  40 CALM      30.30F
REGINA         MOSUNNY   68  30  24 W10G20    30.22F
ESTEVAN        MOSUNNY   64  27  24 VRB6      30.28F
$$





USA.gov is the U.S. government's official web portal to all federal, state and local government web resources and services.